Satellite-Ground Cal/Val Site Overpasses Predictions

Prediction of Satellite NPP Overpassing Cal/Val Site: Antarctic Dome C

Ground Cal/Val Site Location: Latitude: -75.10, Longitude: 123.35; Satellite-Ground Site NADIR distance within 100 km.

Table of predicted overpasses for the next 14.0 days since TLE Epoch: 7/20/2018
Interval Starting Time Ending Time Minimum Distance Time Minimum Distance (km)
1 07/21/2018 15:07:27 07/21/2018 15:07:36 07/21/2018 15:07:31 94.44
2 07/22/2018 14:48:27 07/22/2018 14:48:56 07/22/2018 14:48:42 16.73
3 07/24/2018 07:31:18 07/24/2018 07:31:47 07/24/2018 07:31:33 4.77
4 07/27/2018 14:54:48 07/27/2018 14:55:17 07/27/2018 14:55:02 20.25
5 07/28/2018 14:36:07 07/28/2018 14:36:21 07/28/2018 14:36:14 86.77
6 07/29/2018 07:37:39 07/29/2018 07:38:07 07/29/2018 07:37:53 32.77
7 07/30/2018 07:18:56 07/30/2018 07:19:14 07/30/2018 07:19:05 77.35
8 08/01/2018 15:01:11 08/01/2018 15:01:35 08/01/2018 15:01:23 57.40
9 08/02/2018 14:42:22 08/02/2018 14:42:47 08/02/2018 14:42:34 51.60


NCC Satellite Cal/Val Overpasses Prediction Service
